Stations météo

Publicité
Bordeaux/Merignac, France (7510): Température de l'air & dewpoint: 14.08.2017 19:00:00 - 20.08.2017 19:00:00 (CEST)Bordeaux/Merignac, France (7510): Température de l'air 5cm: 14.08.2017 19:00:00 - 20.08.2017 19:00:00 (CEST)Bordeaux/Merignac, France (7510): Température de l'air -20cm & Température de l'air -100cm: 14.08.2017 19:00:00 - 20.08.2017 19:00:00 (CEST)Bordeaux/Merignac, France (7510): Vitesse du vent & gusts: 14.08.2017 19:00:00 - 20.08.2017 19:00:00 (CEST)Bordeaux/Merignac, France (7510): Direction du vent: 14.08.2017 19:00:00 - 20.08.2017 19:00:00 (CEST)Bordeaux/Merignac, France (7510): reduced air pressure: 14.08.2017 19:00:00 - 20.08.2017 19:00:00 (CEST)Bordeaux/Merignac, France (7510): visibility: 14.08.2017 19:00:00 - 20.08.2017 19:00:00 (CEST)Bordeaux/Merignac, France (7510): Ensoleillement: 14.08.2017 19:00:00 - 20.08.2017 19:00:00 (CEST)Bordeaux/Merignac, France (7510): Quantités de précipitations: 14.08.2017 19:00:00 - 20.08.2017 19:00:00 (CEST)
Date & Time tt [°C] td [°C] tt 5cm [°C] tt -20cm [°C] tt -100cm [°C] ff [km/h] ff [knt] fx [km/h] fx [knt] dd ppp [hPa] vv [km] sd [min] rr [mm]
20.08.2017 19:00:00 25,6 7,2 30,1 25,9 21,9 10 5 26 14 NNE 1024,1 39 60 0,0
20.08.2017 18:00:00 26,1 6,7 31,2 25,5 21,9 11 6 27 15 NNE 1024,5 53 60 0,0
20.08.2017 17:00:00 25,6 6,7 31,7 24,9 21,9 8 4 24 13 N 1024,8 54 60 0,0
20.08.2017 16:00:00 24,9 7,1 31,3 24,3 21,9 10 5 19 11 ENE 1025,2 48 60 0,0
20.08.2017 15:00:00 24,3 8,3 31,3 23,5 21,9 7 4 32 18 NNE 1025,6 50 60 0,0
20.08.2017 14:00:00 23,4 8,3 29,3 22,8 22,0 9 5 18 10 NE 1026,1 24 60 0,0
20.08.2017 13:00:00 22,3 9,5 28,3 22,2 21,9 7 4 16 9 NE 1026,3 48 60 0,0
20.08.2017 12:00:00 21,7 9,9 26,4 21,7 21,9 5 3 14 8 SE 1026,8 39 60 0,0
20.08.2017 11:00:00 20,0 10,7 23,2 21,5 22,0 3 1 10 6 N 1027,2 45 60 0,0
20.08.2017 10:00:00 18,2 11,0 20,7 21,5 22,0 4 2 16 9 E 1026,9 39 60 0,0
20.08.2017 09:00:00 16,1 11,7 13,0 21,6 21,9 3 2 9 5 NNW 1026,7 26 60 0,0
20.08.2017 08:00:00 12,0 10,9 8,0 21,8 21,9 0 0 8 5 N 1026,6 30 17 0,0
20.08.2017 07:00:00 10,9 9,5 7,7 22,1 21,9 4 2 7 4 WNW 1026,3 0,2 0 0,0
20.08.2017 06:00:00 11,8 10,2 7,9 22,4 21,9 3 1 7 4 W 1025,9 0,7 0 0,0
20.08.2017 05:00:00 11,9 10,0 8,6 22,7 21,9 3 2 8 4 NNW 1026,1 14 0 0,0
20.08.2017 04:00:00 12,4 9,8 8,6 23,1 21,9 4 2 6 4 WNW 1025,8 13 0 0,0
20.08.2017 03:00:00 12,5 9,5 9,4 23,4 21,9 3 1 5 3 W 1025,6 23 0 0,0
20.08.2017 02:00:00 13,9 9,9 10,8 23,7 21,9 7 4 18 10 NNW 1025,9 28 0 0,0
20.08.2017 01:00:00 14,7 9,7 13,0 24,1 21,9 0 0 15 8 N 1026,0 52 0 0,0
20.08.2017 00:00:00 15,7 9,8 14,8 24,4 21,9 11 6 16 9 NNW 1026,0 56 0 0,0
19.08.2017 23:00:00 16,7 9,9 15,7 24,7 21,9 9 5 21 11 NNW 1025,7 31 0 0,0
19.08.2017 22:00:00 18,0 9,9 16,6 25,0 21,9 10 6 16 9 N 1025,1 60 0 0,0
19.08.2017 21:00:00 19,6 9,5 18,9 25,2 21,9 11 6 24 13 N 1024,4 60 39 0,0
19.08.2017 20:00:00 21,4 9,3 24,3 25,2 21,9 12 7 28 15 NNE 1024,2 35 60 0,0
19.08.2017 19:00:00 22,2 9,7 26,1 25,1 22,0 16 9 27 15 NNE 1023,9 41 60 0,0
19.08.2017 18:00:00 23,2 10,3 27,1 24,7 22,0 18 10 29 16 N 1023,8 45 60 0,0
19.08.2017 17:00:00 23,6 10,3 29,5 24,2 22,0 13 7 32 17 N 1024,1 50 60 0,0
19.08.2017 16:00:00 23,1 9,8 29,7 23,6 22,0 10 5 23 13 NNE 1024,0 53 60 0,0
19.08.2017 15:00:00 22,9 9,3 28,8 22,9 22,0 12 6 31 17 NNE 1024,3 35 60 0,0
19.08.2017 14:00:00 21,7 8,6 28,4 22,3 22,0 10 5 24 13 NNE 1024,7 55 60 0,0
19.08.2017 13:00:00 21,3 8,5 26,4 21,7 22,0 7 4 24 13 N 1024,9 34 60 0,0
19.08.2017 12:00:00 20,4 9,3 23,4 21,4 22,0 11 6 26 14 NNE 1025,0 48 58 0,0
19.08.2017 11:00:00 19,1 11,1 20,1 21,2 22,1 13 7 23 13 NE 1025,0 46 57 0,0
19.08.2017 10:00:00 17,0 12,1 16,8 21,2 22,1 11 6 17 9 NE 1024,9 43 50 0,0
19.08.2017 09:00:00 16,1 13,2 12,5 21,3 22,1 10 5 15 8 NE 1025,0 34 44 0,0
19.08.2017 08:00:00 13,5 12,9 9,1 21,5 22,1 3 2 12 6 N 1024,4 1,6 0 0,0
19.08.2017 07:00:00 12,6 11,5 9,2 21,7 22,1 2 1 4 2 WNW 1023,9 0,1 0 0,0
19.08.2017 06:00:00 13,4 12,3 10,2 21,9 22,1 0 0 3 2 N 1023,3 0,2 0 0,0
19.08.2017 05:00:00 14,0 12,7 10,7 22,2 22,1 0 0 3 1 N 1023,4 0,1 0 0,0
19.08.2017 04:00:00 15,2 13,9 12,7 22,4 22,1 4 2 9 5 NNE 1023,2 0,3 0 0,0
19.08.2017 03:00:00 15,2 14,2 11,4 22,6 22,1 2 1 6 3 WNW 1023,3 0,4 0 0,0
19.08.2017 02:00:00 15,4 14,1 11,4 22,9 22,1 4 2 6 3 WSW 1023,2 0,5 0 0,0
19.08.2017 01:00:00 16,4 14,9 12,5 23,1 22,1 4 2 6 4 W 1023,0 0,2 0 0,0
19.08.2017 00:00:00 17,4 15,0 14,4 23,3 22,1 5 3 9 5 W 1022,7 0,9 0 0,0
18.08.2017 23:00:00 19,2 15,7 18,6 23,5 22,1 8 4 11 6 NW 1022,6 59 0 0,0
18.08.2017 22:00:00 19,8 16,6 18,9 23,6 22,1 9 5 15 8 WNW 1022,2 60 0 0,0
18.08.2017 21:00:00 20,5 16,3 20,2 23,7 22,1 11 6 28 15 WNW 1021,5 60 5 0,0
18.08.2017 20:00:00 21,7 15,8 21,9 23,7 22,1 16 9 24 13 NW 1021,0 60 5 0,0
18.08.2017 19:00:00 23,1 15,4 23,5 23,6 22,1 18 10 29 16 WNW 1021,0 54 26 0,0
18.08.2017 18:00:00 23,5 15,5 25,0 23,5 22,1 21 11 32 17 W 1020,9 28 26 0,0
18.08.2017 17:00:00 23,1 15,4 25,1 23,4 22,1 18 10 32 17 WNW 1020,8 57 11 0,0
18.08.2017 16:00:00 21,6 17,0 22,1 23,3 22,1 12 7 21 11 NW 1020,8 36 1 0,0
18.08.2017 15:00:00 20,8 16,8 19,7 23,3 22,1 7 4 13 7 W 1020,6 53 0 0,0
18.08.2017 14:00:00 19,7 16,5 17,8 23,3 22,1 7 4 50 27 S 1020,3 55 0 0,4
18.08.2017 13:00:00 20,7 16,5 18,3 23,2 22,1 24 13 43 23 NW 1020,2 3,9 0 0,2
18.08.2017 12:00:00 22,3 16,6 22,8 23,1 22,1 16 9 27 15 W 1019,8 53 0 0,0
18.08.2017 11:00:00 23,2 17,0 23,5 22,9 22,1 16 9 23 12 W 1019,4 47 31 0,0
18.08.2017 10:00:00 21,0 18,8 19,9 22,9 22,1 11 6 17 9 W 1019,3 37 14 0,0
18.08.2017 09:00:00 18,7 18,0 17,9 23,0 22,1 6 4 9 5 SW 1019,1 21 10 0,0
18.08.2017 08:00:00 17,4 16,9 16,8 23,1 22,1 4 2 7 4 WSW 1018,8 0,3 0 0,0
18.08.2017 07:00:00 17,2 16,6 16,8 23,3 22,1 5 3 7 4 WSW 1018,6 0,2 0 0,0
18.08.2017 06:00:00 17,3 16,7 14,8 23,5 22,1 7 4 9 5 WSW 1018,5 0,2 0 0,0
18.08.2017 05:00:00 17,7 16,6 14,7 23,7 22,0 3 1 5 3 WNW 1018,3 0,2 0 0,0
18.08.2017 04:00:00 18,2 17,0 16,1 23,9 22,0 0 0 5 3 N 1018,5 3,6 0 0,0
18.08.2017 03:00:00 18,7 17,4 17,8 24,2 22,0 2 1 14 7 N 1019,0 0,4 0 0,0
18.08.2017 02:00:00 18,9 17,2 17,5 24,4 22,0 6 3 15 8 N 1019,3 21 0 0,0
18.08.2017 01:00:00 19,1 16,9 16,8 24,7 22,0 5 3 7 4 NW 1019,3 20 0 0,0
18.08.2017 00:00:00 19,8 17,0 18,3 25,0 22,0 6 4 13 7 N 1019,3 33 0 0,0
17.08.2017 23:00:00 20,8 17,0 19,9 25,2 22,0 11 6 18 10 NNW 1019,3 49 0 0,0
17.08.2017 22:00:00 22,0 16,7 20,9 25,5 22,0 10 5 21 12 N 1019,5 58 0 0,0
17.08.2017 21:00:00 23,7 16,5 23,0 25,6 22,0 13 7 23 12 NNW 1019,4 60 41 0,0
17.08.2017 20:00:00 25,7 16,8 28,5 25,5 22,1 16 9 29 16 NNW 1019,3 22 60 0,0
17.08.2017 19:00:00 27,8 16,7 32,2 25,2 22,1 14 7 22 12 N 1019,5 41 60 0,0
17.08.2017 18:00:00 28,1 17,0 30,0 24,8 22,1 6 4 15 8 NE 1019,7 50 60 0,0
17.08.2017 17:00:00 26,7 16,9 29,0 24,4 22,1 9 5 20 11 NNW 1020,1 24 23 0,0
17.08.2017 16:00:00 26,3 17,1 28,2 24,0 22,1 8 4 22 12 WNW 1020,5 40 29 0,0
17.08.2017 15:00:00 25,7 17,4 27,9 23,6 22,1 14 8 22 12 WNW 1021,2 36 8 0,0
17.08.2017 14:00:00 25,4 16,5 28,9 23,1 22,1 10 6 20 11 W 1021,3 56 8 0,0
17.08.2017 13:00:00 25,7 16,8 27,5 22,5 22,1 8 4 20 11 SW 1021,3 42 48 0,0
17.08.2017 12:00:00 24,4 15,6 25,1 22,1 22,1 7 4 17 9 W 1021,7 55 45 0,0
17.08.2017 11:00:00 22,5 16,3 25,1 21,7 22,1 9 5 18 10 SW 1022,0 36 47 0,0
17.08.2017 10:00:00 20,9 17,7 23,4 21,6 22,1 6 4 12 6 SSW 1022,0 42 60 0,0
17.08.2017 09:00:00 18,2 17,0 17,1 21,6 22,1 4 2 7 4 SW 1021,8 28 60 0,0
17.08.2017 08:00:00 16,4 15,8 12,8 21,8 22,1 0 0 7 4 N 1021,6 0,6 32 0,0
17.08.2017 07:00:00 15,0 14,2 11,9 22,0 22,1 4 2 6 3 S 1021,3 0,3 0 0,0
17.08.2017 06:00:00 14,9 13,9 12,0 22,3 22,1 0 0 3 1 N 1021,2 0,2 0 0,0
17.08.2017 05:00:00 15,2 14,1 12,2 22,5 22,1 2 1 4 2 S 1021,0 17 0 0,0
17.08.2017 04:00:00 15,6 14,6 12,4 22,8 22,1 3 2 5 3 SW 1021,4 0,2 0 0,0
17.08.2017 03:00:00 15,8 14,5 13,0 23,1 22,1 5 3 5 3 WSW 1021,6 0,2 0 0,0
17.08.2017 02:00:00 16,7 15,1 13,9 23,3 22,1 2 1 5 3 S 1021,7 1,2 0 0,0
17.08.2017 01:00:00 17,4 15,6 15,2 23,5 22,1 3 2 4 2 WSW 1022,3 3,7 0 0,0
17.08.2017 00:00:00 18,2 15,6 16,0 23,8 22,2 2 1 8 5 SW 1022,6 29 0 0,0
16.08.2017 23:00:00 19,2 15,9 18,2 24,1 22,2 6 4 11 6 W 1022,9 59 0 0,0
16.08.2017 22:00:00 20,3 15,7 19,2 24,3 22,2 8 4 15 8 WNW 1022,5 60 0 0,0
16.08.2017 21:00:00 21,8 15,2 21,0 24,5 22,2 11 6 21 11 WNW 1022,2 60 29 0,0
16.08.2017 20:00:00 24,2 15,1 25,0 24,5 22,2 14 8 27 15 WNW 1021,7 31 44 0,0
16.08.2017 19:00:00 25,6 15,0 26,0 24,4 22,2 17 9 24 13 WNW 1021,7 33 13 0,0
16.08.2017 18:00:00 25,3 14,4 26,7 24,2 22,2 11 6 18 10 WSW 1021,6 57 19 0,0
16.08.2017 17:00:00 25,6 14,4 28,9 23,7 22,2 9 5 17 9 SW 1021,6 55 48 0,0
16.08.2017 16:00:00 25,5 12,7 30,1 23,2 22,3 5 3 19 11 SSW 1021,9 39 60 0,0
16.08.2017 15:00:00 24,3 12,6 28,0 22,6 22,3 7 4 14 7 E 1022,1 54 29 0,0
16.08.2017 14:00:00 23,9 13,1 25,3 22,2 22,3 5 3 15 8 E 1022,1 55 34 0,0
16.08.2017 13:00:00 21,5 13,7 22,1 21,9 22,3 5 3 13 7 N 1022,7 60 0 0,0
16.08.2017 12:00:00 19,7 14,5 20,2 21,8 22,3 5 3 9 5 WNW 1022,9 50 0 0,0
16.08.2017 11:00:00 18,4 15,5 18,8 21,8 22,3 3 2 7 4 N 1022,6 42 0 0,0
16.08.2017 10:00:00 17,8 16,0 17,9 21,8 22,3 5 3 8 4 NW 1022,5 15 0 0,0
16.08.2017 09:00:00 17,4 15,9 17,4 21,9 22,3 5 3 6 3 N 1022,2 12 0 0,0
16.08.2017 08:00:00 17,0 15,9 16,2 22,0 22,3 4 2 7 4 - 1021,9 10 0 0,0
16.08.2017 07:00:00 16,4 15,4 15,4 22,1 22,3 3 1 21 12 NNE 1021,6 14 0 0,0
16.08.2017 06:00:00 15,7 14,7 14,1 22,3 22,3 2 1 9 5 N 1021,3 13 0 0,0
16.08.2017 05:00:00 15,7 14,7 14,3 22,5 22,3 5 3 7 4 W 1021,4 11 0 0,0
16.08.2017 04:00:00 16,0 14,9 14,6 22,7 22,3 4 2 6 4 WNW 1021,8 0,8 0 0,0
16.08.2017 03:00:00 16,1 15,1 14,2 22,9 22,3 3 2 9 5 S 1021,9 3,2 0 0,0
16.08.2017 02:00:00 16,1 14,8 14,5 23,2 22,3 3 2 9 5 SE 1022,2 14 0 0,0
16.08.2017 01:00:00 16,5 15,0 15,4 23,4 22,3 6 4 9 5 NW 1022,3 23 0 0,0
16.08.2017 00:00:00 17,2 15,4 15,8 23,7 22,2 5 3 9 5 WNW 1022,3 1,8 0 0,0
15.08.2017 23:00:00 18,0 15,4 16,6 24,0 22,3 4 2 10 5 NW 1021,9 41 0 0,0
15.08.2017 22:00:00 19,0 15,7 18,3 24,2 22,2 7 4 14 8 NW 1021,6 59 0 0,0
15.08.2017 21:00:00 20,4 16,0 19,8 24,4 22,2 11 6 20 11 NW 1020,8 60 37 0,0
15.08.2017 20:00:00 22,0 16,9 21,9 24,5 22,2 12 6 19 11 WNW 1020,4 54 14 0,0
15.08.2017 19:00:00 21,4 17,0 21,8 24,6 22,2 10 5 17 9 W 1020,3 53 0 0,0
15.08.2017 18:00:00 21,8 17,4 20,8 24,6 22,2 13 7 23 12 WNW 1020,2 48 2 0,0
15.08.2017 17:00:00 20,9 17,5 19,1 24,6 22,2 6 4 18 10 W 1019,9 40 0 0,8
15.08.2017 16:00:00 22,7 17,2 24,4 24,5 22,2 11 6 20 11 NW 1019,8 46 10 0,0
15.08.2017 15:00:00 22,6 17,9 22,6 24,5 22,2 14 8 18 10 WNW 1019,6 49 2 0,0
15.08.2017 14:00:00 22,0 18,4 21,6 24,4 22,2 8 5 16 9 WSW 1019,3 48 4 0,0
15.08.2017 13:00:00 21,5 18,7 19,7 24,4 22,2 10 5 16 9 WSW 1019,0 30 0 1,4
15.08.2017 12:00:00 21,9 18,1 20,9 24,4 22,1 9 5 15 8 SW 1019,0 20 14 0,2
15.08.2017 11:00:00 20,8 18,0 20,3 24,5 22,1 7 4 16 9 SW 1018,6 41 0 0,0
15.08.2017 10:00:00 19,9 18,4 19,1 24,6 22,1 5 3 12 7 SW 1018,4 19 0 0,6
15.08.2017 09:00:00 19,7 18,0 19,0 24,8 22,1 7 4 13 7 S 1018,0 17 0 0,2
15.08.2017 08:00:00 19,8 17,8 19,6 24,9 22,1 3 2 15 8 SE 1017,2 20 0 0,0
15.08.2017 07:00:00 19,8 17,9 19,4 25,1 22,0 8 4 18 10 WSW 1017,1 18 0 0,0
15.08.2017 06:00:00 19,9 18,0 19,3 25,4 22,0 10 6 18 10 SW 1016,6 20 0 0,0
15.08.2017 05:00:00 20,5 18,3 19,8 25,6 22,0 9 5 26 14 W 1016,0 22 0 0,0
15.08.2017 04:00:00 21,5 18,5 20,7 25,8 21,9 17 9 25 13 W 1016,7 20 0 0,0
15.08.2017 03:00:00 22,7 18,0 20,7 26,1 21,9 13 7 44 24 WNW 1015,7 34 0 0,0
15.08.2017 02:00:00 22,6 17,9 22,2 26,4 21,9 22 12 35 19 WSW 1016,9 28 0 0,0
15.08.2017 01:00:00 24,0 15,0 21,6 26,7 21,9 12 6 47 26 SSE 1015,0 60 0 0,0
15.08.2017 00:00:00 26,3 15,0 25,0 27,0 21,9 17 9 27 15 WSW 1015,4 20 0 0,0
14.08.2017 23:00:00 27,4 14,4 24,3 27,3 21,9 16 9 24 13 WNW 1013,5 60 0 0,0
14.08.2017 22:00:00 28,1 15,0 24,9 27,5 21,9 6 4 17 9 NNW 1012,4 60 0 0,0
14.08.2017 21:00:00 30,7 15,2 29,3 27,7 21,9 11 6 21 11 NW 1011,7 60 1 0,0
14.08.2017 20:00:00 33,7 16,1 33,8 27,6 21,9 10 5 19 11 ESE 1011,1 60 53 0,0
14.08.2017 19:00:00 34,6 15,0 36,8 27,4 21,9 13 7 27 15 SE 1011,1 52 60 0,0

tt = Température de l'air
td = dewpoint
tt 5cm = Température de l'air 5cm
tt -20cm = Température de l'air -20cm
tt -100cm = Température de l'air -100cm
ff = Vitesse du vent
fx = gusts
dd = Direction du vent
ppp = reduced air pressure
vv = visibility
sd = Ensoleillement
rr = Quantités de précipitations

stations d'obs. à proximité